sat.trackr.live / text

‹ back to catalog

STARLINK-35278

NORAD 65902 · 2025-224W

PAYLOAD ACTIVE UNKNOWN

§ Identity

Operator
Country
US
Launch date
2025-10-07
Launch site
AFETR
Launch vehicle
Mass (kg)
RCS (m²)

Purposes: comms

External: N2YO · Heavens-Above · Gunter

§ Orbital elements

Epoch: 2026-09-20T07:14:59.770752Z

Period
93.85 min
Inclination
53.1574°
Eccentricity
0.0001480
Mean motion
15.34401616 rev/d
Perigee alt
461.7 km
Apogee alt
463.7 km
Semi-major
6,840.8 km
B*
4.4106e-4
RAAN
186.4446°
Arg perigee
81.1706°
Mean anomaly
278.9464°
Rev number
5,468

§ Raw data

STARLINK-352781 65902U 25224W   26263.30208068  .00014555  00000+0  44106-3 0  99902 65902  53.1574 186.4446 0001480  81.1706 278.9464 15.34401616 54682

JSON: /api/v1/satellites/65902 · /tle

For live sub-satellite position, see the globe view (requires WebGL).

§ Visibility from observer

Set your observer location to see the next 7 days of passes ≥ 10°. The values pass through the URL so the page stays shareable.

No JS? Fill the form by hand. The geolocation button needs JavaScript.